Home   Weather   Sunderland   Past weeks

Flag for United Kingdom Past Weather in Sunderland, England, United Kingdom — Yesterday and Last 2 Weeks

Now
39 °F

Overcast.


Feels Like: 39 °F
Forecast: N/A
Wind: 2 mph from North

Location: Newcastle

Current Time: Jan 21, 2017 at 3:15:35 pm

Latest Report: Jan 21, 2017 at 2:20 pm


Visibility: N/A

Pressure: 30.33 "Hg

Humidity: 93%

Dew Point: 37 °F

Location of SunderlandLocation

Past Weather in Sunderland — Graph

°F

Sunderland Temperature Yesterday

Maximum temperature yesterday: 41 °F (at 12:20 am)
Minimum temperature yesterday: 36 °F (at 11:50 pm)
Average temperature yesterday: 40 °F

High & Low Weather Summary for the Past Weeks

 TemperatureHumidityPressure
High52 °F (Jan 11, 1:50 am)100% (Jan 6, 1:20 pm)30.60 "Hg (Jan 6, 1:20 pm)
Low28 °F (Jan 14, 8:20 am)65% (Jan 13, 9:50 am)29.27 "Hg (Jan 11, 2:20 am)
Average42 °F91%30.13 "Hg
* Reported Jan 6 1:20 pm — Jan 21 1:50 pm, Sunderland, Weather by CustomWeather, © 2017

Note: Actual official high and low records may vary slightly from our data, if they occured in-between our weather recording intervals... More about our weather records

Advertising

Sunderland Weather History for the Previous 24 Hours

Scroll right to see more
 ConditionsComfort  
Time TempWeatherWind HumidityBarometerVisibility
1:50 pm
Sat, Jan 21
39 °FOvercast.2 mph93%30.36 "HgN/A
1:20 pm39 °FOvercast.2 mph93%30.36 "HgN/A
12:50 pm39 °FPartly sunny.5 mph93%30.39 "HgN/A
12:20 pm39 °FPartly sunny.6 mph93%30.39 "Hg5 mi
11:20 am37 °FPartly sunny.7 mph100%30.42 "Hg5 mi
10:20 am34 °FFog.2 mph100%30.45 "Hg3 mi
9:50 am34 °FFog.2 mph100%30.45 "Hg3 mi
9:20 am32 °FIce fog.1 mph100%30.45 "Hg3 mi
8:50 am32 °FIce fog.2 mph100%30.45 "Hg3 mi
8:20 am30 °FIce fog.2 mph100%30.45 "Hg2 mi
7:50 am30 °FIce fog.5 mph100%30.42 "Hg2 mi
7:20 am32 °FFog.3 mph93%30.42 "HgN/A
6:50 am28 °FFog.1 mph100%30.45 "HgN/A
6:20 am28 °FFog.1 mph100%30.45 "HgN/A
5:50 am30 °FFog.1 mph100%30.45 "HgN/A
5:20 am28 °FClear.No wind100%30.45 "Hg10 mi
4:50 am30 °FClear.No wind100%30.45 "Hg10 mi
4:20 am32 °FClear.No wind100%30.45 "Hg10 mi
3:50 am32 °FClear.1 mph100%30.45 "Hg10 mi
3:20 am34 °FClear.1 mph100%30.45 "Hg5 mi
2:50 am32 °FClear.2 mph100%30.45 "Hg5 mi
2:20 am34 °FClear.1 mph100%30.48 "Hg4 mi
1:50 am36 °FClear.3 mph93%30.48 "Hg4 mi
1:20 am36 °FClear.2 mph100%30.48 "Hg4 mi
12:50 am36 °FClear.3 mph100%30.48 "Hg4 mi
11:50 pm
Fri, Jan 20
36 °FClear.1 mph93%30.48 "Hg4 mi
11:20 pm37 °FClear.3 mph93%30.48 "Hg4 mi
10:50 pm37 °FClear.3 mph93%30.51 "Hg4 mi
10:20 pm37 °FPassing clouds.3 mph100%30.51 "Hg4 mi
9:50 pm39 °FPassing clouds.3 mph93%30.51 "Hg4 mi
9:20 pm39 °FPassing clouds.6 mph93%30.51 "Hg4 mi
8:50 pm41 °FPassing clouds.5 mph93%30.51 "Hg5 mi
8:20 pm41 °FPassing clouds.5 mph93%30.51 "Hg5 mi
7:50 pm41 °FPassing clouds.3 mph93%30.51 "Hg6 mi
7:20 pm39 °FPassing clouds.1 mph100%30.51 "HgN/A
6:50 pm39 °FPassing clouds.No wind93%30.51 "HgN/A
6:20 pm39 °FPassing clouds.No wind93%30.51 "HgN/A
5:50 pm39 °FPassing clouds.1 mph93%30.51 "HgN/A
5:20 pm39 °FPassing clouds.No wind93%30.51 "HgN/A
4:50 pm39 °FPassing clouds.No wind93%30.51 "HgN/A
4:20 pm39 °FPassing clouds.1 mph93%30.51 "HgN/A
3:50 pm39 °FPartly sunny.3 mph93%30.51 "HgN/A
3:20 pm39 °FPartly sunny.2 mph93%30.54 "HgN/A
Weather by CustomWeather, © 2017

See weather overviewHow to use our weather pages